SCP
0 0 0 -0 0 0 0 0 0 0 0 0 0 0 0 0 0 0 0 -0 -0 -0 -0 -0 -0 -0 -0 -0 -0 -0 -0 -0 0 0 0 0 0 0 0 0 0 -0 0
0 0 0 0 0 0 0 0 0 0 0 0 0 0 0 0 0 0 0 0 0 -0 -0 -0 -0 -0 -0 -0 -0 0 0 0 0 0 0 0 0 0 0 0 0 0 0
0 0 0 0 0 0 0 0 0 0 0 0 0 0 0 0 0 0 -0 -0 -0 -0 -0 -0 -0 -0 0 0 0 0 0 0 0 0 0 0 0 0 0 0 0 0 0
0 0 0 0 0 0 0 0 0 0 0 0 0 -0 0 0 0 -0 -0 -0 -0 -0 -0 -0 -0 0 0 0 0 0 0 0 0 0 0 0 -0 0 0 0 0 0 0
0 0 0 0 0 0 0 0 0 0 0 0 0 0 0 0 0 0 0 0 0 0 0 0 0 0 0 0 0 0 0 0 0 0 0 0 0 0 0 0 0 0 0
0 0 0 0 0 0 0 0 0 0 0 0 0 0 0 0 0 0 0 0 0 0 0 0 0 0 0 0 0 0 0 0 0 0 0 -0 0 0 0 0 0 0 0
0 0 0 -0 0 0 0 0 0 0 0 0 0 0 0 0 0 0 0 0 0 0 0 0 0 0 0 0 0 0 0 0 0 0 0 0 0 0 0 0 0 0 0
-0 -0 -0 -0 -0 0 0 0 0 0 0 0 0 0 0 0 0 0 0 0 0 0 0 0 0 0 0 0 0 0 0 0 0 0 0 0 0 -0 0 0 0 0 0
-0 -0 -0 -0 -0 -0 0 0 0 0 0 0 0 0 0 0 0 0 0 0 0 0 0 0 0 0 0 0 0 0 0 0 0 0 0 0 0 -0 -0 0 0 0 0
0 -0 -0 0 0 0 0 0 0 0 0 0 0 0 0 0 0 0 0 0 0 0 0 0 0 0 0 0 0 0 0 0 0 0 0 0 0 0 -0 0 0 0 0
0 0 0 0 0 0 0 0 0 0 0 0 0 0 0 0 0 0 0 0 0 0 0 0 0 0 0 0 0 0 0 0 0 0 0 0 0 0 0 -0 0 0 0
0 0 0 0 0 0 0 0 0 0 0 0 0 0 0 0 0 0 0 0 0 0 0 0 0 0 0 0 0 0 0 0 0 0 0 0 0 0 0 0 0 0 0
0 0 0 0 0 0 0 0 0 0 0 0 0 0 0 0 0 0 0 0 0 0 0 0 0 0 0 0 0 0 0 0 0 0 0 0 0 0 0 0 0 0 0
0 0 0 0 0 0 0 0 0 0 0 0 0 0 0 0 0 0 0 0 0 0 0 0 0 0 0 0 0 0 0 0 0 0 0 0 0 0 0 0 0 0 0
0 0 0 0 0 0 0 0 0 0 0 0 0 0 0 0 0 0 0 0 0 0 0 0 0 0 0 0 0 0 0 0 0 0 0 0 0 0 0 0 0 0 0
0 0 0 0 0 0 0 0 0 0 0 0 0 0 0 0 0 0 0 0 0 0 0 0 0 0 0 0 0 0 0 0 0 0 0 0 0 0 0 0 0 0 0
0 0 0 0 0 0 0 0 0 0 0 0 0 0 0 0 0 0 0 0 0 0 0 0 0 0 0 0 0 0 0 0 0 0 0 0 0 0 0 0 0 0 0
0 0 0 0 0 0 0 0 0 0 0 0 0 0 0 0 0 0 0 0 0 0 0 0 0 0 0 0 0 0 0 0 0 0 0 0 0 0 0 0 0 0 0
0 0 0 0 0 0 0 0 0 0 0 0 0 0 0 0 0 0 0 0 0 0 0 0 0 0 0 0 0 0 0 0 0 0 0 0 0 0 0 0 0 0 0
0 0 0 0 0 0 0 0 0 0 0 0 0 0 0 0 0 0 0 0 0 0 0 0 0 0 0 0 0 0 0 0 0 0 0 0 0 0 0 0 0 0 0
0 0 0 0 0 0 0 0 0 0 0 0 0 0 0 0 0 0 0 0 0 0 0 0 0 0 0 0 0 0 0 0 0 0 0 0 0 0 0 0 0 0 0
0 0 0 0 0 0 0 0 0 0 0 0 0 0 0 0 0 0 0 0 0 0 0 0 0 0 0 0 0 0 0 0 0 0 0 0 0 0 0 0 0 0 0
0 0 0 0 0 0 0 0 0 0 0 0 0 0 0 0 0 0 0 0 0 0 0 0 0 0 0 0 0 0 0 0 0 0 0 0 0 0 0 0 0 0 0
0 0 0 0 0 0 0 0 0 0 0 0 0 0 0 0 0 0 0 0 0 0 0 0 0 0 0 0 0 0 0 0 0 0 0 0 0 0 0 0 0 0 0
0 0 0 0 0 0 0 0 0 0 0 0 0 0 0 0 0 0 0 0 0 0 0 0 0 0 0 0 0 0 0 0 0 0 0 0 0 0 0 0 0 0 0
0 0 0 0 0 0 0 0 0 0 0 0 0 0 0 0 0 0 0 0 0 0 0 0 0 0 0 0 0 0 0 0 0 0 0 0 0 0 0 0 0 0 0
Wind_Speed_500mb
12 11 10 9 8 7 10 11 11 15 18 15 14 11 10 9 9 8 6 3 3 6 6 4 6 11 11 8 5 7 11 16 16 13 12 11 12 12 13 13 14 14 18
9 13 10 9 8 6 7 9 11 12 13 13 11 9 8 6 4 2 3 5 5 5 8 7 4 3 4 4 2 6 12 15 14 10 11 12 12 9 9 11 15 11 8
8 13 12 10 8 6 5 8 10 10 11 10 13 11 8 4 3 5 3 2 3 4 2 8 9 9 3 2 4 8 12 14 14 13 12 13 15 12 9 7 8 9 4
12 11 12 9 8 6 4 7 8 8 10 12 13 13 7 1 3 5 8 8 8 5 2 4 5 9 4 1 1 8 13 16 16 17 16 13 13 14 14 11 2 7 10
12 15 12 7 7 6 4 4 6 7 6 7 8 8 7 2 5 7 9 6 5 3 7 3 6 8 5 3 1 7 11 12 14 16 17 16 14 15 16 16 12 8 12
15 14 7 6 5 5 4 3 4 5 3 5 6 5 5 5 2 6 10 6 8 11 8 1 3 5 5 3 5 9 12 14 16 17 16 16 14 14 17 19 16 13 14
13 10 7 6 7 6 5 2 1 2 2 3 7 8 5 3 5 8 12 10 9 10 6 3 3 6 6 7 9 12 14 16 18 20 17 17 16 15 17 18 17 17 19
5 7 8 8 9 8 9 7 5 3 1 1 6 9 9 8 9 10 11 12 11 12 12 6 6 8 11 13 15 17 17 18 19 20 22 20 18 18 19 20 20 21 21
8 4 3 5 9 11 11 11 10 8 7 5 5 8 10 11 10 9 10 13 14 15 14 13 11 12 14 15 16 18 19 20 20 21 23 23 23 22 22 24 24 23 25
9 5 3 3 4 8 11 14 14 13 12 11 9 9 11 13 13 14 13 13 17 18 17 16 17 17 16 15 17 19 21 21 23 22 23 25 24 24 25 25 28 29 27
13 9 6 4 6 8 9 12 16 16 15 15 15 14 14 15 17 18 17 16 14 15 16 18 20 22 22 21 22 22 24 24 22 21 21 21 24 26 29 25 31 35 37
14 11 9 8 8 10 11 15 13 21 20 17 18 19 19 20 20 21 22 21 20 18 19 20 22 24 25 24 23 23 23 22 22 22 23 23 24 28 30 31 31 34 39
8 15 17 14 13 15 14 15 16 17 19 19 18 19 19 20 19 21 21 21 21 21 21 22 23 23 23 24 23 24 25 26 26 26 26 27 29 31 33 34 37 35 39
18 18 21 26 25 23 20 20 18 20 20 20 20 21 22 23 22 20 22 24 23 23 25 25 24 24 25 24 25 25 26 29 31 32 32 31 32 33 34 36 38 41 41
18 18 24 23 23 24 27 25 22 22 26 23 25 24 23 22 24 26 28 29 29 29 28 28 29 28 27 26 28 30 30 32 33 34 34 34 36 38 38 37 39 40 43
21 24 27 23 21 23 27 29 28 25 24 27 28 26 26 24 28 29 30 32 33 33 33 33 33 33 34 33 33 33 34 36 38 40 41 41 41 40 42 43 46 46 50
26 26 27 28 27 26 29 33 36 35 33 32 31 30 30 30 27 27 32 33 35 36 37 39 38 38 38 38 38 36 38 40 42 43 43 44 45 42 42 45 49 47 46
27 32 35 32 31 29 27 32 38 41 39 38 36 36 34 35 33 35 33 32 32 38 40 42 43 43 43 42 42 40 42 44 44 46 50 46 44 41 35 30 30 35 36
27 36 40 39 36 34 33 33 38 42 43 43 41 39 41 42 38 39 37 37 36 36 38 41 42 43 43 43 44 46 47 50 50 51 50 50 45 38 34 34 40 36 34
27 34 39 40 39 40 41 42 44 44 46 45 44 43 40 42 36 42 39 38 37 39 41 42 41 43 49 51 49 49 48 49 50 45 44 34 25 24 26 29 31 32 31
29 34 36 38 41 45 46 39 39 39 40 40 40 39 37 35 36 41 37 43 43 38 42 43 46 47 45 45 44 46 47 48 48 41 36 18 23 27 25 25 26 29 33
31 31 32 35 36 30 24 22 24 26 28 26 25 25 25 33 35 35 38 37 38 38 39 43 43 43 42 42 40 42 41 41 30 17 19 32 24 24 23 29 28 30 29
27 26 26 22 20 20 18 16 12 11 14 18 16 22 26 29 32 30 32 36 37 38 41 42 41 39 41 42 42 33 14 12 30 18 19 18 16 33 29 31 41 40 35
21 19 15 15 14 12 8 9 8 13 17 19 21 25 26 26 29 34 38 39 36 32 29 30 30 28 28 30 30 33 35 40 20 20 22 25 29 26 16 17 20 21 24
15 10 8 8 9 9 7 6 13 18 22 24 28 31 31 28 30 30 26 24 24 23 23 23 24 24 25 26 26 26 30 36 39 31 39 33 21 11 15 13 15 20 22
7 4 5 4 5 8 7 6 10 17 23 27 27 29 30 28 24 22 21 21 20 21 22 23 24 25 26 27 27 25 22 21 23 22 21 25 25 15 12 19 15 26 27
Wind_Direction_500mb
153 161 145 153 130 93 64 65 86 125 137 139 136 129 127 125 124 128 134 125 100 68 69 70 116 84 95 80 53 35 4 343 344 348 360 10 20 17 46 56 61 48 53
169 164 151 163 150 122 71 75 79 117 139 145 145 133 126 129 142 179 241 253 262 259 248 255 227 146 85 66 33 344 338 335 346 5 38 42 37 23 45 63 92 69 34
181 168 155 165 164 149 83 78 72 101 123 133 132 130 129 105 27 348 334 236 243 230 240 206 211 193 185 253 307 330 345 358 9 21 33 29 27 27 16 55 145 147 203
182 172 159 162 170 161 106 90 76 89 108 118 138 178 187 179 9 46 79 101 94 100 51 147 166 184 193 212 336 354 5 8 13 15 21 19 13 11 13 9 333 262 278
171 157 159 164 177 168 132 101 88 83 119 128 123 129 170 168 75 51 61 96 189 315 343 210 169 180 202 190 324 339 347 353 355 357 2 10 1 351 344 340 332 292 298
156 152 164 183 196 189 165 125 97 78 101 176 162 142 134 140 268 337 349 0 336 320 326 315 183 145 192 229 273 308 327 333 335 341 347 353 353 341 337 342 330 312 302
169 183 204 217 217 222 214 204 169 124 92 175 196 202 201 223 282 298 322 335 337 340 6 358 233 221 245 271 285 302 310 312 318 322 326 334 338 340 333 335 332 314 304
146 183 206 227 227 232 234 237 241 236 252 269 212 213 225 249 284 281 291 316 343 355 345 306 302 279 278 280 286 294 300 303 306 309 313 319 321 323 324 326 327 322 308
186 173 187 227 233 241 245 248 248 248 253 257 249 241 241 252 269 276 285 296 310 328 341 345 328 302 295 290 296 301 302 301 304 304 306 308 309 312 315 313 317 318 313
215 224 240 264 262 253 262 259 253 251 252 257 259 260 258 258 265 267 277 289 290 301 313 320 324 323 320 309 305 302 300 303 299 301 299 302 304 307 309 298 303 307 308
215 226 249 275 286 286 291 286 260 247 248 252 257 260 263 267 269 269 273 277 287 288 293 303 309 310 308 308 311 310 307 307 301 303 313 311 304 307 307 298 294 303 307
220 236 251 264 299 305 313 312 298 257 250 249 256 260 263 264 266 267 263 266 271 279 288 295 297 303 298 301 301 304 309 311 306 306 307 310 308 307 307 305 296 295 298
256 246 256 259 273 283 296 309 305 303 309 265 264 259 262 263 262 261 265 264 270 278 288 291 290 295 299 298 302 297 299 303 305 304 304 306 305 304 305 303 299 291 289
244 248 257 260 266 271 272 284 300 294 299 316 311 275 268 269 269 280 277 276 278 288 293 292 290 290 292 293 294 297 298 300 303 302 303 305 304 303 300 298 296 294 291
248 264 264 253 259 265 263 267 278 293 287 293 298 302 282 271 271 275 276 278 279 284 290 287 289 290 292 300 300 302 307 311 312 314 311 308 304 301 298 295 296 294 293
254 263 255 248 257 268 258 256 264 276 281 279 287 294 295 288 278 279 279 280 282 284 287 286 286 289 292 297 298 301 303 305 307 308 310 312 313 311 304 297 301 297 296
245 251 254 252 265 272 264 252 249 257 263 267 276 280 274 276 285 296 289 280 281 280 278 280 285 288 290 294 296 299 307 309 307 307 305 304 305 309 309 306 302 302 301
252 247 248 254 260 269 267 256 254 256 259 261 260 262 269 270 280 284 289 290 285 277 280 282 284 285 288 293 292 292 293 296 300 302 303 304 300 295 297 296 306 310 311
247 240 237 245 253 262 265 257 254 257 260 261 258 251 248 260 267 269 271 277 276 274 276 279 279 283 284 286 288 289 290 294 297 295 294 294 292 292 295 297 305 304 309
237 235 238 247 255 261 265 262 259 255 254 257 259 258 257 252 260 269 269 274 275 279 278 282 288 287 285 284 285 287 289 289 289 295 299 298 296 287 291 295 296 299 301
235 240 247 256 267 274 275 267 255 251 250 251 254 257 257 255 265 268 273 274 277 275 281 279 285 285 286 287 291 289 287 291 289 294 298 278 293 297 294 295 300 303 300
243 252 264 274 277 277 279 268 252 244 247 248 249 252 253 262 270 272 274 279 281 282 281 283 283 282 284 283 283 287 294 297 289 269 268 284 290 301 294 292 289 295 301
243 257 272 279 284 290 294 277 256 230 234 222 253 267 262 267 267 269 277 280 280 277 275 274 274 273 272 271 272 272 280 259 294 304 275 291 295 307 294 278 279 283 286
242 256 275 296 307 314 306 262 215 231 236 252 262 261 262 268 276 279 276 276 275 276 280 277 277 278 277 275 270 266 262 264 273 291 288 288 314 320 305 300 296 300 305
228 248 274 297 310 317 310 268 239 239 249 252 257 261 265 268 269 275 273 272 274 278 281 286 288 287 283 278 273 267 262 260 262 261 282 303 314 336 329 321 322 322 320
220 234 253 270 320 316 316 295 256 248 253 257 251 254 259 266 269 268 265 267 273 279 283 285 287 287 286 284 282 279 269 259 265 262 268 291 312 337 306 319 296 317 323
Wind_Speed_850mb
12 11 10 9 8 7 10 11 11 15 18 15 14 11 10 9 9 8 6 3 3 6 6 4 6 11 11 8 5 7 11 16 16 13 12 11 12 12 13 13 14 14 18
9 13 10 9 8 6 7 9 11 12 13 13 11 9 8 6 4 2 3 5 5 5 8 7 4 3 4 4 2 6 12 15 14 10 11 12 12 9 9 11 15 11 8
8 13 12 10 8 6 5 8 10 10 11 10 13 11 8 4 3 5 3 2 3 4 2 8 9 9 3 2 4 8 12 14 14 13 12 13 15 12 9 7 8 9 4
12 11 12 9 8 6 4 7 8 8 10 12 13 13 7 1 3 5 8 8 8 5 2 4 5 9 4 1 1 8 13 16 16 17 16 13 13 14 14 11 2 7 10
12 15 12 7 7 6 4 4 6 7 6 7 8 8 7 2 5 7 9 6 5 3 7 3 6 8 5 3 1 7 11 12 14 16 17 16 14 15 16 16 12 8 12
15 14 7 6 5 5 4 3 4 5 3 5 6 5 5 5 2 6 10 6 8 11 8 1 3 5 5 3 5 9 12 14 16 17 16 16 14 14 17 19 16 13 14
13 10 7 6 7 6 5 2 1 2 2 3 7 8 5 3 5 8 12 10 9 10 6 3 3 6 6 7 9 12 14 16 18 20 17 17 16 15 17 18 17 17 19
5 7 8 8 9 8 9 7 5 3 1 1 6 9 9 8 9 10 11 12 11 12 12 6 6 8 11 13 15 17 17 18 19 20 22 20 18 18 19 20 20 21 21
8 4 3 5 9 11 11 11 10 8 7 5 5 8 10 11 10 9 10 13 14 15 14 13 11 12 14 15 16 18 19 20 20 21 23 23 23 22 22 24 24 23 25
9 5 3 3 4 8 11 14 14 13 12 11 9 9 11 13 13 14 13 13 17 18 17 16 17 17 16 15 17 19 21 21 23 22 23 25 24 24 25 25 28 29 27
13 9 6 4 6 8 9 12 16 16 15 15 15 14 14 15 17 18 17 16 14 15 16 18 20 22 22 21 22 22 24 24 22 21 21 21 24 26 29 25 31 35 37
14 11 9 8 8 10 11 15 13 21 20 17 18 19 19 20 20 21 22 21 20 18 19 20 22 24 25 24 23 23 23 22 22 22 23 23 24 28 30 31 31 34 39
8 15 17 14 13 15 14 15 16 17 19 19 18 19 19 20 19 21 21 21 21 21 21 22 23 23 23 24 23 24 25 26 26 26 26 27 29 31 33 34 37 35 39
18 18 21 26 25 23 20 20 18 20 20 20 20 21 22 23 22 20 22 24 23 23 25 25 24 24 25 24 25 25 26 29 31 32 32 31 32 33 34 36 38 41 41
18 18 24 23 23 24 27 25 22 22 26 23 25 24 23 22 24 26 28 29 29 29 28 28 29 28 27 26 28 30 30 32 33 34 34 34 36 38 38 37 39 40 43
21 24 27 23 21 23 27 29 28 25 24 27 28 26 26 24 28 29 30 32 33 33 33 33 33 33 34 33 33 33 34 36 38 40 41 41 41 40 42 43 46 46 50
26 26 27 28 27 26 29 33 36 35 33 32 31 30 30 30 27 27 32 33 35 36 37 39 38 38 38 38 38 36 38 40 42 43 43 44 45 42 42 45 49 47 46
27 32 35 32 31 29 27 32 38 41 39 38 36 36 34 35 33 35 33 32 32 38 40 42 43 43 43 42 42 40 42 44 44 46 50 46 44 41 35 30 30 35 36
27 36 40 39 36 34 33 33 38 42 43 43 41 39 41 42 38 39 37 37 36 36 38 41 42 43 43 43 44 46 47 50 50 51 50 50 45 38 34 34 40 36 34
27 34 39 40 39 40 41 42 44 44 46 45 44 43 40 42 36 42 39 38 37 39 41 42 41 43 49 51 49 49 48 49 50 45 44 34 25 24 26 29 31 32 31
29 34 36 38 41 45 46 39 39 39 40 40 40 39 37 35 36 41 37 43 43 38 42 43 46 47 45 45 44 46 47 48 48 41 36 18 23 27 25 25 26 29 33
31 31 32 35 36 30 24 22 24 26 28 26 25 25 25 33 35 35 38 37 38 38 39 43 43 43 42 42 40 42 41 41 30 17 19 32 24 24 23 29 28 30 29
27 26 26 22 20 20 18 16 12 11 14 18 16 22 26 29 32 30 32 36 37 38 41 42 41 39 41 42 42 33 14 12 30 18 19 18 16 33 29 31 41 40 35
21 19 15 15 14 12 8 9 8 13 17 19 21 25 26 26 29 34 38 39 36 32 29 30 30 28 28 30 30 33 35 40 20 20 22 25 29 26 16 17 20 21 24
15 10 8 8 9 9 7 6 13 18 22 24 28 31 31 28 30 30 26 24 24 23 23 23 24 24 25 26 26 26 30 36 39 31 39 33 21 11 15 13 15 20 22
7 4 5 4 5 8 7 6 10 17 23 27 27 29 30 28 24 22 21 21 20 21 22 23 24 25 26 27 27 25 22 21 23 22 21 25 25 15 12 19 15 26 27
Wind_Direction_850mb
153 161 145 153 130 93 64 65 86 125 137 139 136 129 127 125 124 128 134 125 100 68 69 70 116 84 95 80 53 35 4 343 344 348 360 10 20 17 46 56 61 48 53
169 164 151 163 150 122 71 75 79 117 139 145 145 133 126 129 142 179 241 253 262 259 248 255 227 146 85 66 33 344 338 335 346 5 38 42 37 23 45 63 92 69 34
181 168 155 165 164 149 83 78 72 101 123 133 132 130 129 105 27 348 334 236 243 230 240 206 211 193 185 253 307 330 345 358 9 21 33 29 27 27 16 55 145 147 203
182 172 159 162 170 161 106 90 76 89 108 118 138 178 187 179 9 46 79 101 94 100 51 147 166 184 193 212 336 354 5 8 13 15 21 19 13 11 13 9 333 262 278
171 157 159 164 177 168 132 101 88 83 119 128 123 129 170 168 75 51 61 96 189 315 343 210 169 180 202 190 324 339 347 353 355 357 2 10 1 351 344 340 332 292 298
156 152 164 183 196 189 165 125 97 78 101 176 162 142 134 140 268 337 349 0 336 320 326 315 183 145 192 229 273 308 327 333 335 341 347 353 353 341 337 342 330 312 302
169 183 204 217 217 222 214 204 169 124 92 175 196 202 201 223 282 298 322 335 337 340 6 358 233 221 245 271 285 302 310 312 318 322 326 334 338 340 333 335 332 314 304
146 183 206 227 227 232 234 237 241 236 252 269 212 213 225 249 284 281 291 316 343 355 345 306 302 279 278 280 286 294 300 303 306 309 313 319 321 323 324 326 327 322 308
186 173 187 227 233 241 245 248 248 248 253 257 249 241 241 252 269 276 285 296 310 328 341 345 328 302 295 290 296 301 302 301 304 304 306 308 309 312 315 313 317 318 313
215 224 240 264 262 253 262 259 253 251 252 257 259 260 258 258 265 267 277 289 290 301 313 320 324 323 320 309 305 302 300 303 299 301 299 302 304 307 309 298 303 307 308
215 226 249 275 286 286 291 286 260 247 248 252 257 260 263 267 269 269 273 277 287 288 293 303 309 310 308 308 311 310 307 307 301 303 313 311 304 307 307 298 294 303 307
220 236 251 264 299 305 313 312 298 257 250 249 256 260 263 264 266 267 263 266 271 279 288 295 297 303 298 301 301 304 309 311 306 306 307 310 308 307 307 305 296 295 298
256 246 256 259 273 283 296 309 305 303 309 265 264 259 262 263 262 261 265 264 270 278 288 291 290 295 299 298 302 297 299 303 305 304 304 306 305 304 305 303 299 291 289
244 248 257 260 266 271 272 284 300 294 299 316 311 275 268 269 269 280 277 276 278 288 293 292 290 290 292 293 294 297 298 300 303 302 303 305 304 303 300 298 296 294 291
248 264 264 253 259 265 263 267 278 293 287 293 298 302 282 271 271 275 276 278 279 284 290 287 289 290 292 300 300 302 307 311 312 314 311 308 304 301 298 295 296 294 293
254 263 255 248 257 268 258 256 264 276 281 279 287 294 295 288 278 279 279 280 282 284 287 286 286 289 292 297 298 301 303 305 307 308 310 312 313 311 304 297 301 297 296
245 251 254 252 265 272 264 252 249 257 263 267 276 280 274 276 285 296 289 280 281 280 278 280 285 288 290 294 296 299 307 309 307 307 305 304 305 309 309 306 302 302 301
252 247 248 254 260 269 267 256 254 256 259 261 260 262 269 270 280 284 289 290 285 277 280 282 284 285 288 293 292 292 293 296 300 302 303 304 300 295 297 296 306 310 311
247 240 237 245 253 262 265 257 254 257 260 261 258 251 248 260 267 269 271 277 276 274 276 279 279 283 284 286 288 289 290 294 297 295 294 294 292 292 295 297 305 304 309
237 235 238 247 255 261 265 262 259 255 254 257 259 258 257 252 260 269 269 274 275 279 278 282 288 287 285 284 285 287 289 289 289 295 299 298 296 287 291 295 296 299 301
235 240 247 256 267 274 275 267 255 251 250 251 254 257 257 255 265 268 273 274 277 275 281 279 285 285 286 287 291 289 287 291 289 294 298 278 293 297 294 295 300 303 300
243 252 264 274 277 277 279 268 252 244 247 248 249 252 253 262 270 272 274 279 281 282 281 283 283 282 284 283 283 287 294 297 289 269 268 284 290 301 294 292 289 295 301
243 257 272 279 284 290 294 277 256 230 234 222 253 267 262 267 267 269 277 280 280 277 275 274 274 273 272 271 272 272 280 259 294 304 275 291 295 307 294 278 279 283 286
242 256 275 296 307 314 306 262 215 231 236 252 262 261 262 268 276 279 276 276 275 276 280 277 277 278 277 275 270 266 262 264 273 291 288 288 314 320 305 300 296 300 305
228 248 274 297 310 317 310 268 239 239 249 252 257 261 265 268 269 275 273 272 274 278 281 286 288 287 283 278 273 267 262 260 262 261 282 303 314 336 329 321 322 322 320
220 234 253 270 320 316 316 295 256 248 253 257 251 254 259 266 269 268 265 267 273 279 283 285 287 287 286 284 282 279 269 259 265 262 268 291 312 337 306 319 296 317 323